This is the latest recevied weather packets stored in our database for station/object WB5CFT. If no packets are shown the sender has not sent any weather packets the latest 1 day(s).
| Time | Temp. | Humidity | Pressure | Rain* | Wind** | Luminosity | Snow |
|---|---|---|---|---|---|---|---|
| 1778029790 | 25.56° C | 32% | 1009.5 hPa | 0 mm | - | 33 W/m² | - |
| 1778029489 | 26.11° C | 32% | 1009.6 hPa | 0 mm | - | 41 W/m² | - |
| 1778029185 | 26.11° C | 32% | 1009.9 hPa | 0 mm | - | 54 W/m² | - |
| 1778028883 | 26.11° C | 32% | 1009.9 hPa | 0 mm | - | 70 W/m² | - |
| 1778028578 | 26.11° C | 31% | 1009.9 hPa | 0 mm | - | 77 W/m² | - |
| 1778027972 | 26.11° C | 32% | 1009.8 hPa | 0 mm | - | 82 W/m² | - |
| 1778027669 | 25.56° C | 32% | 1009.8 hPa | 0 mm | - | 64 W/m² | - |
| 1778027365 | 25.56° C | 32% | 1009.8 hPa | 0 mm | - | 73 W/m² | - |
| 1778027061 | 26.11° C | 32% | 1009.9 hPa | 0 mm | - | 78 W/m² | - |
| 1778026757 | 26.67° C | 31% | 1009.9 hPa | 0 mm | - | 137 W/m² | - |
| 1778021913 | 26.67° C | 30% | 1010 hPa | 0 mm | - | 189 W/m² | - |
| 1778021610 | 26.67° C | 30% | 1009.8 hPa | 0 mm | - | 148 W/m² | - |
| 1778021305 | 26.67° C | 30% | 1009.8 hPa | 0 mm | - | 262 W/m² | - |
| 1778020700 | 27.22° C | 28% | 1010.1 hPa | 0 mm | - | 546 W/m² | - |
| 1778019183 | 26.67° C | 30% | 1009.8 hPa | 0 mm | - | 538 W/m² | - |
| 1778018880 | 26.67° C | 31% | 1010.2 hPa | 0 mm | - | 182 W/m² | - |
| 1778017973 | 27.22° C | 30% | 1010.3 hPa | 0 mm | - | 225 W/m² | - |
| 1778016762 | 27.22° C | 30% | 1010.1 hPa | 0 mm | - | 262 W/m² | - |
| 1778015246 | 26.11° C | 31% | 1010.4 hPa | 0 mm | - | 234 W/m² | - |
| 1778011913 | 24.44° C | 33% | 1011.3 hPa | 0 mm | - | 139 W/m² | - |
| 1778011611 | 24.44° C | 32% | 1011.2 hPa | 0 mm | - | 138 W/m² | - |
| 1778011003 | 24.44° C | 33% | 1011.3 hPa | 0 mm | - | 142 W/m² | - |
* Rain latest hour (hover to see other rain measurements)
** Current wind speed in m/s (hover to see current wind gust speed)